Location: eljas
(40.1958°N, 6.8661°W)
Time: 20:39:23
(UTC+01:00)

Daily predictions for brighter satellites

Satellite Brightness Start Highest point End
(mag) Time Altitude Azimuth Time Altitude Azimuth Time Altitude Azimuth
Cosmos 2218 Rocket 4.1 18:51:17 10° N 18:57:18 53° E 19:03:15 10° SSE
Cosmos 968 Rocket 3.6 18:52:42 10° NNW 18:57:51 85° WSW 19:02:58 10° SSE
Cosmos 1076 Rocket 3.5 18:54:39 10° S 18:58:59 76° E 19:03:23 10° N
Cosmos 1400 Rocket 3.2 18:55:48 10° SSW 18:59:51 73° W 19:03:59 10° N
FENGYUN 3A 4.3 18:56:06 10° SE 19:00:47 32° ENE 19:05:29 10° N
OAO 3 Rocket 4.3 18:56:27 10° WSW 19:00:49 41° S 19:05:14 10° ESE
Geosat 4.0 18:56:45 10° NNE 19:01:48 73° ESE 19:06:49 10° SSW
BREEZE-M DEB (TANK) 2.6 18:56:40 10° WSW 19:03:24 76° NNW 19:06:06 10° NE
IRAS Rocket 4.2 18:58:11 10° SSE 19:03:42 75° ENE 19:09:18 10° NNW
Cosmos 1300 2.6 19:01:26 10° N 19:05:15 77° E 19:09:04 10° SSE
SeaSat 1 3.0 19:04:04 10° SSE 19:08:57 66° WSW 19:13:53 10° NNW
Meteor 2-10 4.3 19:03:55 10° NNW 19:08:58 74° W 19:14:07 10° S
CZ-2C R/B 3.8 19:04:33 10° NNE 19:09:13 62° ESE 19:13:46 10° S
METEOR-M 4.2 19:04:35 10° SSE 19:09:51 61° ENE 19:15:08 10° N
COSMO-SKYMED 1 3.0 19:05:44 10° NNE 19:09:52 41° E 19:13:57 10° S
USA 116 4.2 19:06:02 10° NNE 19:10:32 74° ESE 19:15:31 10° S
Cosmos 1703 4.2 19:09:52 10° SSE 19:13:15 27° E 19:16:39 10° NNE
SL-08 R/B 4.5 19:12:51 10° N 19:18:59 64° E 19:25:02 10° SSE
Cosmos 44 3.4 19:17:54 10° SW 19:22:10 66° WNW 19:26:36 10° NNE
Cosmos 1726 4.4 19:21:03 10° NNW 19:24:15 29° W 19:27:26 10° SSW
Cosmos 1743 Rocket 4.2 19:21:17 10° SSE 19:25:09 32° E 19:29:01 10° NNE
Cosmos 1328 Rocket 3.9 19:23:23 10° N 19:27:33 42° ENE 19:31:39 10° SSE
Tiangong 1 1.1 19:26:29 10° W 19:28:54 53° SSW 19:31:12 11° SE
Cosmos 371 Rocket 3.9 19:24:36 10° SSE 19:28:55 34° ESE 19:33:17 10° NE
Cosmos 2366 rocket 4.0 19:24:09 10° N 19:30:24 87° E 19:36:34 10° S
Cosmos 2228 Rocket 3.7 19:26:27 10° N 19:30:41 36° ENE 19:34:53 10° SE
Cosmos 2098 Rocket 4.1 19:26:11 10° N 19:31:39 53° E 19:38:18 10° SSE
Meteor 1-27 4.3 19:33:53 10° N 19:39:34 63° ENE 19:45:18 10° SSE
COSMOS 2406 3.2 19:34:17 10° S 19:39:55 64° ESE 19:45:34 10° NNE
Meteor 1-11 4.2 19:34:44 10° S 19:40:18 76° E 19:45:59 10° NNE
Cosmos 1766 Rocket 4.1 19:40:08 10° SSW 19:44:24 59° W 19:48:41 10° N
Nadezhda 3 Rocket 4.0 19:43:00 10° S 19:49:11 60° E 19:55:27 10° NNE
Cosmos 2058 2.9 19:46:41 10° S 19:50:48 63° E 19:54:57 10° NNE
ISS -1.6 19:51:58 10° SSE 19:53:07 13° SE 19:53:07 13° SE
Cosmos 1697 Rocket 4.4 19:51:52 10° NNE 19:53:45 13° NE 19:53:45 13° NE
FengYun 1-2 T 4.4 19:51:23 10° SE 19:56:46 49° ENE 20:02:08 10° N
Cosmos 1151 Rocket 3.0 19:52:34 10° N 19:56:54 57° E 20:01:12 10° SSE
SKYMED 2 4.3 19:53:41 10° N 19:57:56 55° WNW 20:02:10 10° SSW
H-2A R/B 2.9 19:54:41 10° SSE 19:58:22 49° ENE 20:02:07 10° N
NOAA 12 4.1 19:53:08 10° SSE 19:58:23 87° WSW 20:03:40 10° NNW
Cosmos 1455 2.0 19:58:35 10° N 20:02:27 78° E 20:06:14 10° S
YAOGAN 1 4.2 19:59:04 10° SSW 20:03:04 37° W 20:07:06 10° NNW
CZ-4 R/B 4.0 19:59:48 10° SSW 20:03:18 25° W 20:06:49 10° NW
Cosmos 1346 Rocket 3.4 19:59:59 10° NNW 20:03:50 56° W 20:07:36 10° S
CZ-3 Stage 3 4.0 19:54:57 10° WSW 20:04:07 27° S 20:06:43 15° SE
Cosmos 1934 Rocket 4.3 20:04:13 10° N 20:10:19 45° ENE 20:16:21 10° SSE
Cosmos 1626 4.1 20:08:11 10° SW 20:11:29 30° WNW 20:14:48 10° NNW
Thor Agena Rocket 3.9 20:10:36 26° NE 20:13:06 42° E 20:17:59 10° S
RESURS DK-1 4.3 20:11:07 10° N 20:12:20 16° NNE 20:12:20 16° NNE
CZ-4C R/B 2.6 20:10:18 10° S 20:14:54 36° ESE 20:15:35 34° E
PKM 3.7 20:12:31 10° NW 20:15:19 65° NE 20:16:44 37° ESE
Cosmos 1605 Rocket 4.4 20:12:45 10° N 20:18:15 34° ENE 20:18:16 34° ENE
Cosmos 304 Rocket 4.4 20:14:41 10° SSE 20:18:26 35° ESE 20:18:26 35° ESE
ALOS 3.6 20:15:30 10° S 20:19:53 41° W 20:24:20 10° NNW
Cosmos 2151 3.4 20:15:43 10° SSW 20:19:56 63° W 20:24:13 10° N
SL-27 R/B 3.5 20:17:43 10° S 20:19:46 31° SSE 20:19:46 31° SSE
Cosmos 332 Rocket 4.4 20:19:50 10° SSW 20:24:38 58° WNW 20:29:09 12° N
ERBS 3.7 20:25:49 10° NW 20:27:42 28° NNW 20:27:42 28° NNW
Cosmos 2239 Rocket 4.3 20:23:32 10° N 20:29:43 85° E 20:35:52 10° S
ERS-2 3.3 20:29:37 10° S 20:33:08 43° W 20:36:41 10° NNW
Lacrosse 5 1.7 20:38:07 10° SSW 20:43:10 68° SE 20:43:12 68° SE
Cosmos 1340 3.8 20:43:24 10° NNW 20:45:54 37° NW 20:45:54 37° NW
Cosmos 1980 Rocket 4.3 20:49:54 10° N 20:50:36 13° N 20:50:36 13° N
Cosmos 468 Rocket 3.9 20:50:07 10° SSW 20:55:14 78° WNW 20:55:53 66° N
Cosmos 1898 Rocket 3.4 20:52:32 10° NNW 20:57:52 86° WSW 20:58:04 83° SSW
Cosmos 2082 Rocket 3.2 20:57:49 10° S 21:00:54 32° S 21:00:54 32° S
Envisat 4.5 21:16:09 28° NNW 21:16:09 28° NNW 21:18:31 10° NNW
Cosmos 2278 4.4 21:09:20 10° NNW 21:13:13 45° NNW 21:13:13 45° NNW
GEOS 3 Rocket 4.4 21:24:50 49° NW 21:24:50 49° NW 21:28:44 10° NW
Cosmos 1833 Rocket 3.9 21:20:48 10° SSW 21:23:44 33° SSW 21:23:44 33° SSW
CZ-4C R/B 4.1 21:58:32 10° WSW 22:00:51 23° W 22:00:51 23° W
